Zurück zum Katalog

CRRES DEB

CANISTER

LostHEO
NORAD 21590·DEBRIS·🇺🇸 United States

Gestartet Jul 25, 1990 von Cape Canaveral Space Force Station

Loading…

Nächste Überflüge (nächste 24 Stunden)

TLE

VeraltetSource: Space-Track

Epoche: Apr 30, 2026, 22:01 UTC

1 21590U 90065F   26120.91739433  .00000365  00000-0  73657-3 0  9992
2 21590  20.6033 357.8366 6938116 253.5079  24.9563  2.68221463128370

Verfolge CRRES DEB in Echtzeit mit AllMySat

Download on the App Store